Change the Weather History Date:

Saturday, March 2, 2013

  Actual Average (KGUS) Record (KGUS)
Temperature  
Mean Temperature 28 °F -  
Max Temperature 32 °F 39 °F 57 °F (2012)
Min Temperature 24 °F 25 °F 3 °F (2015)
Degree Days  
Heating Degree Days 37    
Moisture  
Dew Point 19 °F    
Average Humidity 69    
Maximum Humidity 80    
Minimum Humidity 59    
Precipitation  
Precipitation 0.00 in - - ()
Sea Level Pressure  
Sea Level Pressure 30.08 in    
Wind  
Wind Speed 11 mph (North)    
Max Wind Speed 17 mph    
Max Gust Speed 24 mph    
Visibility 10 miles    
Events      
Averages and records for this station are not official NWS values.
T = Trace of Precipitation, MM = Missing Value Source: NWS Daily Summary

Daily Weather History Graph

Daily Weather History Graph

Search for Another Location

Airport or City:

Trip Planner

Search our weather history database for the weather conditions in past years. The results will help you decide how hot, cold, wet, or windy it might be!

Date:

Astronomy

Mar. 02, 2013 Rise Set
Actual Time 6:16 AM CST 5:37 PM CST
Civil Twilight 5:48 AM CST 6:04 PM CST
Nautical Twilight 5:17 AM CST 6:36 PM CST
Astronomical Twilight 4:45 AM CST 7:07 PM CST
Moon 11:17 PM CST (3/2) 8:42 AM CST (3/2)
Length of Visible Light 12h 15m
Length of Day
11h 21m
Waning Gibbous, 74% of the Moon is Illuminated
Mar 2
Waning Gibbous
Mar 4
Last Quarter
Mar 11
New
Mar 19
First Quarter
Mar 27
Full

Hourly Weather History & Observations

Time (CST) Temp. Windchill Dew Point Humidity Pressure Visibility Wind Dir Wind Speed Gust Speed Precip Events Conditions
12:15 AM 28.4 °F 19.1 °F 21.2 °F 74% 30.08 in 10.0 mi NNE 10.4 mph - N/A   Overcast
12:35 AM 26.6 °F 16.2 °F 21.2 °F 80% 30.08 in 10.0 mi NE 11.5 mph - N/A   Overcast
12:55 AM 26.6 °F 16.8 °F 21.2 °F 80% 30.08 in 10.0 mi NNE 10.4 mph - N/A   Overcast
1:15 AM 26.6 °F 16.2 °F 19.4 °F 74% 30.09 in 10.0 mi NNE 11.5 mph - N/A   Overcast
1:35 AM 26.6 °F 15.7 °F 19.4 °F 74% 30.09 in 10.0 mi North 12.7 mph - N/A   Overcast
1:55 AM 26.6 °F 16.2 °F 19.4 °F 74% 30.08 in 10.0 mi NNE 11.5 mph - N/A   Overcast
2:15 AM 26.6 °F 16.8 °F 19.4 °F 74% 30.08 in 10.0 mi NNE 10.4 mph - N/A   Overcast
2:35 AM 26.6 °F 17.5 °F 17.6 °F 69% 30.07 in 10.0 mi North 9.2 mph - N/A   Overcast
2:55 AM 26.6 °F 17.5 °F 17.6 °F 69% 30.07 in 10.0 mi North 9.2 mph - N/A   Overcast
3:15 AM 26.6 °F 16.8 °F 19.4 °F 74% 30.07 in 10.0 mi NNE 10.4 mph - N/A   Overcast
3:55 AM 26.6 °F 18.2 °F 17.6 °F 69% 30.07 in 10.0 mi NE 8.1 mph - N/A   Overcast
4:15 AM 24.8 °F 17.9 °F 17.6 °F 74% 30.07 in 10.0 mi NNE 5.8 mph - N/A   Overcast
4:35 AM 26.6 °F 18.2 °F 19.4 °F 74% 30.07 in 10.0 mi North 8.1 mph - N/A   Overcast
4:55 AM 26.6 °F 18.2 °F 19.4 °F 74% 30.07 in 10.0 mi North 8.1 mph - N/A   Overcast
5:15 AM 26.6 °F 18.2 °F 17.6 °F 69% 30.07 in 10.0 mi North 8.1 mph - N/A   Overcast
5:35 AM 26.6 °F 17.5 °F 19.4 °F 74% 30.07 in 10.0 mi North 9.2 mph - N/A   Overcast
5:55 AM 26.6 °F 18.2 °F 17.6 °F 69% 30.07 in 10.0 mi North 8.1 mph - N/A   Overcast
6:35 AM 26.6 °F 16.2 °F 19.4 °F 74% 30.07 in 10.0 mi North 11.5 mph - N/A   Overcast
6:55 AM 26.6 °F 15.7 °F 19.4 °F 74% 30.08 in 10.0 mi North 12.7 mph - N/A   Overcast
7:15 AM 26.6 °F 15.7 °F 17.6 °F 69% 30.09 in 10.0 mi North 12.7 mph - N/A   Overcast
7:35 AM 26.6 °F 15.7 °F 17.6 °F 69% 30.09 in 10.0 mi North 12.7 mph - N/A   Overcast
7:55 AM 26.6 °F 15.7 °F 19.4 °F 74% 30.09 in 10.0 mi North 12.7 mph - N/A   Overcast
8:15 AM 26.6 °F 16.2 °F 17.6 °F 69% 30.09 in 10.0 mi NNE 11.5 mph - N/A   Overcast
8:35 AM 26.6 °F 15.2 °F 17.6 °F 69% 30.10 in 10.0 mi NNE 13.8 mph - N/A   Overcast
8:55 AM 26.6 °F 15.2 °F 17.6 °F 69% 30.10 in 10.0 mi NNE 13.8 mph 19.6 mph N/A   Overcast
9:15 AM 28.4 °F 17.0 °F 15.8 °F 59% 30.10 in 10.0 mi NNE 15.0 mph - N/A   Overcast
9:35 AM 28.4 °F 17.0 °F 17.6 °F 64% 30.10 in 10.0 mi North 15.0 mph - N/A   Overcast
9:55 AM 28.4 °F 17.0 °F 17.6 °F 64% 30.10 in 10.0 mi North 15.0 mph 19.6 mph N/A   Overcast
10:15 AM 28.4 °F 18.0 °F 17.6 °F 64% 30.10 in 10.0 mi North 12.7 mph - N/A   Overcast
10:35 AM 28.4 °F 17.5 °F 17.6 °F 64% 30.09 in 10.0 mi NNE 13.8 mph - N/A   Overcast
10:55 AM 28.4 °F 18.0 °F 17.6 °F 64% 30.09 in 10.0 mi North 12.7 mph - N/A   Overcast
11:15 AM 28.4 °F 17.5 °F 19.4 °F 69% 30.10 in 10.0 mi NNE 13.8 mph 17.3 mph N/A   Overcast
11:35 AM 28.4 °F 19.7 °F 19.4 °F 69% 30.09 in 10.0 mi North 9.2 mph - N/A   Overcast
11:55 AM 30.2 °F 21.9 °F 19.4 °F 64% 30.09 in 10.0 mi North 9.2 mph - N/A   Overcast
12:15 PM 30.2 °F 21.3 °F 17.6 °F 60% 30.08 in 10.0 mi North 10.4 mph 16.1 mph N/A   Overcast
12:35 PM 30.2 °F 21.3 °F 19.4 °F 64% 30.08 in 10.0 mi NNW 10.4 mph - N/A   Overcast
12:55 PM 30.2 °F 21.3 °F 17.6 °F 60% 30.07 in 10.0 mi NNW 10.4 mph - N/A   Overcast
1:15 PM 30.2 °F 19.8 °F 19.4 °F 64% 30.06 in 10.0 mi NNW 13.8 mph - N/A   Overcast
1:35 PM 32.0 °F 23.6 °F 19.4 °F 60% 30.06 in 10.0 mi NW 10.4 mph - N/A   Overcast
1:55 PM 32.0 °F 23.0 °F 19.4 °F 60% 30.06 in 10.0 mi North 11.5 mph - N/A   Overcast
2:15 PM 32.0 °F 23.0 °F 19.4 °F 60% 30.06 in 10.0 mi NNW 11.5 mph - N/A   Overcast
2:35 PM 32.0 °F 23.6 °F 19.4 °F 60% 30.05 in 10.0 mi NNW 10.4 mph - N/A   Overcast
2:55 PM 32.0 °F 23.6 °F 19.4 °F 60% 30.05 in 10.0 mi NNW 10.4 mph - N/A   Overcast
3:15 PM 32.0 °F 22.5 °F 19.4 °F 60% 30.05 in 10.0 mi NW 12.7 mph - N/A   Overcast
3:35 PM 30.2 °F 20.2 °F 21.2 °F 69% 30.06 in 10.0 mi NNW 12.7 mph - N/A   Overcast
3:55 PM 32.0 °F 23.6 °F 19.4 °F 60% 30.06 in 10.0 mi NNW 10.4 mph - N/A   Overcast
4:15 PM 30.2 °F 19.3 °F 21.2 °F 69% 30.06 in 10.0 mi NW 15.0 mph - N/A   Overcast
4:35 PM 30.2 °F 19.3 °F 21.2 °F 69% 30.06 in 10.0 mi NW 15.0 mph - N/A   Overcast
4:55 PM 30.2 °F 19.3 °F 21.2 °F 69% 30.06 in 10.0 mi NW 15.0 mph - N/A   Overcast
5:15 PM 30.2 °F 20.8 °F 21.2 °F 69% 30.07 in 10.0 mi NW 11.5 mph - N/A   Overcast
5:35 PM 30.2 °F 20.2 °F 23.0 °F 75% 30.07 in 10.0 mi NW 12.7 mph - N/A   Overcast
5:55 PM 30.2 °F 19.3 °F 23.0 °F 75% 30.07 in 10.0 mi NW 15.0 mph - N/A   Overcast
6:15 PM 30.2 °F 19.3 °F 21.2 °F 69% 30.08 in 10.0 mi NNW 15.0 mph - N/A   Overcast
6:35 PM 28.4 °F 17.0 °F 19.4 °F 69% 30.08 in 10.0 mi NNW 15.0 mph 21.9 mph N/A   Overcast
6:55 PM 28.4 °F 16.2 °F 17.6 °F 64% 30.08 in 10.0 mi North 17.3 mph - N/A   Overcast
7:15 PM 28.4 °F 16.2 °F 19.4 °F 69% 30.08 in 10.0 mi North 17.3 mph 24.2 mph N/A   Overcast
7:35 PM 28.4 °F 18.5 °F 17.6 °F 64% 30.08 in 10.0 mi North 11.5 mph 20.7 mph N/A   Overcast
7:55 PM 28.4 °F 18.0 °F 19.4 °F 69% 30.09 in 10.0 mi North 12.7 mph 19.6 mph N/A   Overcast
8:15 PM 28.4 °F 19.7 °F 19.4 °F 69% 30.09 in 10.0 mi North 9.2 mph - N/A   Overcast
8:35 PM 28.4 °F 19.7 °F 17.6 °F 64% 30.09 in 10.0 mi North 9.2 mph - N/A   Overcast
8:55 PM 28.4 °F 20.4 °F 19.4 °F 69% 30.09 in 10.0 mi North 8.1 mph - N/A   Overcast
9:15 PM 28.4 °F 19.1 °F 19.4 °F 69% 30.09 in 10.0 mi North 10.4 mph - N/A   Overcast
9:35 PM 28.4 °F 20.4 °F 19.4 °F 69% 30.09 in 10.0 mi North 8.1 mph - N/A   Overcast
9:55 PM 28.4 °F 19.7 °F 19.4 °F 69% 30.09 in 10.0 mi NNW 9.2 mph - N/A   Overcast
10:15 PM 28.4 °F 17.5 °F 21.2 °F 74% 30.09 in 10.0 mi NNW 13.8 mph - N/A   Overcast
10:35 PM 28.4 °F 17.5 °F 21.2 °F 74% 30.08 in 10.0 mi NW 13.8 mph - N/A   Overcast
10:55 PM 28.4 °F 17.5 °F 23.0 °F 80% 30.08 in 10.0 mi NW 13.8 mph - N/A   Overcast
11:15 PM 26.6 °F 16.2 °F 21.2 °F 80% 30.08 in 10.0 mi NW 11.5 mph - N/A   Overcast
11:35 PM 26.6 °F 13.8 °F 21.2 °F 80% 30.08 in 10.0 mi NNW 17.3 mph - N/A   Overcast
11:55 PM 26.6 °F 14.7 °F 21.2 °F 80% 30.08 in 10.0 mi NW 15.0 mph - N/A   Overcast